Regional Weather Roundup
Issued by NWS

Home | Current Version | Previous Version | Text Only | Print | Product List | Glossary On
Versions: 1 2 3 4 5 6 7 8 9 10 11 12 13 14 15 16 17 18 19 20 21 22 23 24 25 26 27 28 29 30 31 32 33 34 35 36 37 38 39 40 41 42 43 44 45 46 47 48 49 50
000
ASCA44 KEWX 050420
RWRMX

LATIN AMERICA AND CARIBBEAN REGIONAL WEATHER ROUNDUP
NATIONAL WEATHER SERVICE AUSTIN/SAN ANTONIO TX
1100 PM CDT SAT JUL 04 2015

NOTE: "FAIR" INDICATED FEW OR NO CLOUDS BELOW 12,000 FEET WITH NO
SIGNIFICANT WEATHER AND/OR OBSTRUCTIONS TO VISIBILITY.

BAJA CALIFORNIA

CITY           SKY/WX    TMP DP  RH WIND       PRES   REMARKS
LA PAZ         PTCLDY    77  66  69 S9        29.89R
MEXICALI       CLEAR     90  66  45 SE8       29.70R HX  92
S.J. DEL CABO  CLEAR     84  68  58 N5        29.86R
TIJUANA        CLOUDY    66  57  72 W8        29.94R

NORTHWESTERN MEXICO

CITY           SKY/WX    TMP DP  RH WIND       PRES   REMARKS
CULIACAN       CLOUDY    84  77  79 S6        29.87R HX  94
DURANGO        RAIN      64  57  77 CALM      30.24R
HERMOSILLO     PTCLDY    88  73  62 S9        29.87R HX  96
CD. JUAREZ       N/A    N/A N/A N/A MISG        N/A
LOS MOCHIS       N/A    N/A N/A N/A MISG        N/A
OBREGON          N/A    N/A N/A N/A MISG        N/A

NORTHEASTERN MEXICO

CITY           SKY/WX    TMP DP  RH WIND       PRES   REMARKS
CHIHUAHUA      CLOUDY    70  61  73 CALM      30.12R
MONCLOVA         N/A    N/A N/A N/A MISG        N/A
MONTERREY      CLEAR     79  66  65 E6        29.93R
PIEDRAS NEGRAS   N/A    N/A N/A N/A MISG        N/A
SALTILLO         N/A    N/A N/A N/A MISG        N/A
TORREON        MOCLDY    86  59  39 NE9       30.00R

WESTERN MEXICO

CITY           SKY/WX    TMP DP  RH WIND       PRES   REMARKS
AGUASCALIENTES MOCLDY    59  57  94 S5        30.28R
DEL BAJIO      CLOUDY    61  59  94 S5        30.33R
GUADALAJARA    MOCLDY    66  61  82 CALM      30.20R
MAZATLAN       PTCLDY    79  70  73 W8        29.87R
P. VALLARTA    MOCLDY    84  75  74 W5        29.89R HX  92
ZACATECAS      MOCLDY    63  50  63 S8        30.29R

CENTRAL MEXICO

CITY           SKY/WX    TMP DP  RH WIND       PRES   REMARKS
MEXICO CITY    CLOUDY    59  52  77 SW3       30.38R
PUEBLA           N/A    N/A N/A N/A MISG        N/A
QUERETARO      CLOUDY    59  57  94 SE6       30.35R
S. LUIS POTOSI MOCLDY    64  57  77 S14       30.26R
TAMPICO        PTCLDY    77  73  88 CALM      29.98R
TOLUCA         MOCLDY    54  50  87 CALM      30.43R

SOUTHERN MEXICO

CITY           SKY/WX    TMP DP  RH WIND       PRES   REMARKS
ACAPULCO       PTCLDY    86  79  79 NW6       29.88R HX  99
OAXACA         CLOUDY    64  61  88 E2        30.28R
VERACRUZ       PTCLDY    81  75  83 CALM      29.98R
ZIHUATANEJO      N/A    N/A N/A N/A MISG        N/A

YUCATAN PENINSULA

CITY           SKY/WX    TMP DP  RH WIND       PRES   REMARKS
CAMPECHE       PTCLDY    86  73  66 SE12      29.96R HX  93
CANCUN         MOCLDY    81  79  94 N6        30.05R
CD. DEL CARMEN PTCLDY    88  70  55 E13       29.94R HX  92
COZUMEL        MOCLDY    77  70  78 CALM      30.05R
MERIDA         CLEAR     82  72  69 E7        30.02R
TAPACHULA      CLEAR     82  73  74 CALM      29.88R
TUX. GUTIERREZ PTCLDY    77  70  78 CALM      29.98R
VILLAHERMOSA   CLEAR     82  72  69 E7        29.94R

CENTRAL AMERICA

CITY           SKY/WX    TMP DP  RH WIND       PRES   REMARKS
MANAGUA        PTCLDY    79  73  83 E7        29.83S

CARIBBEAN

CITY           SKY/WX    TMP DP  RH WIND       PRES   REMARKS
ARUBA          PTCLDY    81  77  89 E20       29.94R
CURACAO        PTCLDY    81  75  83 E15       29.97S
KINGSTON       PTCLDY    86  73  66 SE23      29.97S HX  93
NASSAU         PTCLDY    82  75  78 SE5       30.16R
SAN JUAN       PTCLDY    81  73  78 E10       30.11S
SANTO DOMINGO  MOCLDY    79  75  89 NE5       30.06S
ST. CROIX      CLOUDY    81  72  74 E13       30.10
ST. MAARTEN    PTCLDY    82  72  69 E22       30.09S
ST. THOMAS     CLOUDY    82  73  74 E10       30.09F

$$




USA.gov is the U.S. government's official web portal to all federal, state and local government web resources and services.